Regional Weather Roundup
Issued by NWS

Home | Current Version | Previous Version | Text Only | Print | Product List | Glossary Off
Versions: 1 2 3 4 5 6 7 8 9 10 11 12 13 14 15 16 17 18 19 20 21 22 23 24 25 26 27 28 29 30 31 32 33 34 35 36 37 38 39 40 41 42 43 44 45 46 47 48 49 50

000
ASUS43 KMKX 181900
RWRWI

WISCONSIN REGIONAL WEATHER ROUNDUP
NATIONAL WEATHER SERVICE MILWAUKEE/SULLIVAN WI
100 PM CST THU DEC 18 2014

NOTE: "FAIR" INDICATES FEW OR NO CLOUDS BELOW 12,000 FEET WITH NO
SIGNIFICANT WEATHER AND/OR OBSTRUCTIONS TO VISIBILITY.

WIZ001-002-006>008-014>016-023>028-182000-
NORTHWEST WISCONSIN

CITY           SKY/WX    TMP DP  RH WIND       PRES   REMARKS
SUPERIOR ARPT  CLOUDY    28  20  74 SE7       30.28F WCI  20
ASHLAND        PTSUNNY   25  19  78 S6        30.28F WCI  18
HAYWARD        CLOUDY    23  17  78 SE7       30.25F WCI  15
SIREN          CLOUDY    22  19  85 S6        30.27F WCI  15
CUMBERLAND     CLOUDY    21  19  93 SE3       30.25F
RICE LAKE      CLOUDY    23  20  88 CALM      30.28F
CHETEK         CLOUDY    23  19  87 CALM      30.27F
LADYSMITH      CLOUDY    25  20  83 S3        30.27F
EAU CLAIRE     NOT AVBL
MENOMONIE      CLOUDY    24  19  83 SE3       30.28F
NEW RICHMOND   CLOUDY    23  19  87 SW6       30.28F WCI  15
OSCEOLA        CLOUDY    23  19  83 S5        30.31F WCI  17
$$

WIZ003>005-009-010-017-018-182000-
NORTH CENTRAL WISCONSIN

CITY           SKY/WX    TMP DP  RH WIND       PRES   REMARKS
MANITOWISH WTR MOSUNNY   24  16  71 SW5       30.22F WCI  18
ARBOR VITAE    SUNNY     23  17  77 CALM      30.21F
WOODRUFF       SUNNY     23  17  77 CALM      30.21F
RHINELANDER    SUNNY     22  15  75 CALM      30.21F
EAGLE RIVER    SUNNY     24  15  68 CALM      30.21F
LAND O LAKES   SUNNY     25  18  74 CALM      30.22S
PHILLIPS       CLOUDY    21  17  83 E3        30.23F
TOMAHAWK       CLOUDY    23  18  80 CALM      30.23F
MEDFORD        CLOUDY    22  18  84 CALM      30.22F
MERRILL        CLOUDY    24  18  77 S3        30.23F
$$

WIZ029-030-035-036-043>047-182000-
CENTRAL WISCONSIN

CITY           SKY/WX    TMP DP  RH WIND       PRES   REMARKS
WAUSAU         CLOUDY    25  18  74 CALM      30.22F
MOSINEE        CLOUDY    25  21  86 E3        30.24F
MARSHFIELD     CLOUDY    25  19  78 VRB5      30.23F WCI  19
STEVENS POINT  CLOUDY    24  18  79 CALM      30.25F
WAUPACA        CLOUDY    28  20  70 CALM      30.26F
WAUTOMA        NOT AVBL
WISC RAPIDS    CLOUDY    25  19  78 VRB3      30.26F
CAMP DOUGLAS   NOT AVBL
$$

WIZ011>013-019>022-031-037>040-048>050-182000-
NORTHEAST WISCONSIN

CITY           SKY/WX    TMP DP  RH WIND       PRES   REMARKS
ANTIGO         SUNNY     25  17  73 CALM      30.21F
SHAWANO        SUNNY     32  20  62 CALM      30.25F
OCONTO         CLOUDY    27  20  72 CALM      30.26F
STURGEON BAY   PTSUNNY   27  18  69 N9        30.25F WCI  17
GREEN BAY      CLOUDY    28  20  71 N7        30.25F WCI  21
MANITOWOC      NOT AVBL
APPLETON       CLOUDY    27  19  74 N6        30.24F WCI  20
CLINTONVILLE   PTSUNNY   28  19  69 N5        30.25F WCI  23
OSHKOSH        CLOUDY    27  20  75 N7        30.24F WCI  19
$$

WIZ032>034-041-042-053>061-182000-
SOUTHWEST WISCONSIN

CITY           SKY/WX    TMP DP  RH WIND       PRES   REMARKS
LA CROSSE      CLOUDY    25  18  74 SW5       30.28F WCI  19
SPARTA         CLOUDY    24  19  82 CALM      30.28F
VIROQUA        CLOUDY    22  19  87 E5        30.23F WCI  16
BOSCOBEL       CLOUDY    27  17  66 N5        30.27F WCI  22
PRAIRIE DU CHI CLOUDY    27  17  64 CALM      30.26F
PLATTEVILLE    MOSUNNY   26  19  77 CALM      30.24F
$$

WIZ056-057-062-063-064-067-068-182000-
SOUTH CENTRAL WISCONSIN

CITY           SKY/WX    TMP DP  RH WIND       PRES   REMARKS
REEDSBURG      CLOUDY    24  19  81 CALM      30.25F
BARABOO/DELLS  CLOUDY    25  20  82 CALM      30.24F
LONE ROCK      NOT AVBL
MINERAL POINT  CLOUDY    27  19  74 NE3       30.23F
MADISON        CLOUDY    27  20  75 NW3       30.23F
MIDDLETON      CLOUDY    28  21  77 N3        30.24F
WATERTOWN      CLOUDY    26  25  96 NW3       30.23F FOG
MONROE         CLOUDY    25  19  80 CALM      30.23F
JANESVILLE     CLOUDY    27  19  74 W6        30.24F WCI  20
$$

WIZ051-052-058>065-066-070>072-182000-
SOUTHEAST WISCONSIN

CITY           SKY/WX    TMP DP  RH WIND       PRES   REMARKS
MILWAUKEE      CLOUDY    27  21  78 W9        30.23F WCI  18
WAUKESHA       CLOUDY    25  23  93 W6        30.24F FOG     WCI  18
MILWAUKEE/TIMM FOG       27  25  93 W7        30.24F VSB 1   WCI  19
RACINE         CLOUDY    28  21  75 NW6       30.24F WCI  22
BURLINGTON     CLOUDY    27  20  75 NW6       30.22F WCI  20
KENOSHA        CLOUDY    29  20  69 W8        30.22F WCI  21
FOND DU LAC    CLOUDY    28  20  71 N8        30.24F WCI  20
SHEBOYGAN      CLOUDY    28  21  75 NW9       30.23F WCI  19
WEST BEND      CLOUDY    28  23  80 N6        30.23F WCI  22
JUNEAU         CLOUDY    26  23  87 NW3       30.24F
$$

LSZ147-162-182000-
LAKE SUPERIOR

STATION/POSITION TIME  TEMP    WIND        PRES    WAVE
                       AIR SEA DIR/SP/G            HT/PER
                 (UTC) (F)     (DEG/KT/KT) (MB)    (FT/S)
DEVILS ISLAND    1800   28      60/ 12/ 14 1027.1F
PORT WING        1800   28      80/  5/  7 1025.7F
SAXON HARBOR     1800   29     110/  2/  5 1026.1F
$$

LMZ867-665-643>646-182000-
LAKE MICHIGAN

STATION/POSITION TIME  TEMP    WIND        PRES    WAVE
                       AIR SEA DIR/SP/G            HT/PER
                 (UTC) (F)     (DEG/KT/KT) (MB)    (FT/S)
CHAMBERS ISLAND  1800   29     360/  9/ 13 1024.7F
NORTHPORT PIER   1800   27     360/  7/  9 1024.4F
SISTER BAY       1713           20/  8/ 11   N/A
ALGOMA LAKESHORE 1814          320/ 11/ 13   N/A
KEWAUNEE LAKESHO 1800   27     320/  7/ 11 1023.3F
SHEBOYGAN LAKESH 1800   28 34  310/ 11/ 12 1025.2F
PORT WASHINGTON  1800   29     330/  6/  9 1025.1
MILWAUKEE LAKESH 1800   27     290/  8/  9   N/A
KENOSHA   LAKESH 1800   27     290/ 10/ 11 1024.0F
$$

TC  - TEMPERATURE IN CELSIUS
VSB - VISIBILITY IN STATUTE MILES
WCI - WIND CHILL INDEX
HX  - HEAT INDEX



USA.gov is the U.S. government's official web portal to all federal, state and local government web resources and services.